timestamp,wind_dir_avg,wind_spd_avg,wind_spd_max_dir,wind_spd_gust,battery_voltage,lat,long
2020-01-11 00:04:01+00:00,227.0,5.68,233.0,6.51,12.57,47.59359,-54.27349
2020-01-11 00:14:01+00:00,220.0,7.05,221.0,7.94,12.49,47.59359,-54.27349
2020-01-11 00:24:01+00:00,221.0,7.42,220.0,8.56,12.49,47.59359,-54.27349
2020-01-11 00:34:01+00:00,226.0,9.07,226.0,11.27,12.49,47.59359,-54.27349
2020-01-11 00:44:01+00:00,231.0,9.06,230.0,10.29,12.49,47.59359,-54.27349
2020-01-11 00:54:01+00:00,247.0,8.53,241.0,9.5,12.49,47.59359,-54.27349
2020-01-11 01:04:01+00:00,255.0,9.78,255.0,11.19,12.49,47.59359,-54.27349
2020-01-11 01:14:01+00:00,258.0,10.61,259.0,12.33,12.49,47.59359,-54.27349
2020-01-11 01:24:01+00:00,238.0,10.63,239.0,12.91,12.49,47.59359,-54.27349
2020-01-11 01:34:01+00:00,244.0,9.39,242.0,10.49,12.49,47.59359,-54.27349
2020-01-11 01:44:01+00:00,238.0,9.82,239.0,11.97,12.49,47.59359,-54.27349
2020-01-11 01:54:01+00:00,238.0,9.82,242.0,12.37,12.49,47.59359,-54.27349
2020-01-11 02:04:01+00:00,236.0,12.78,236.0,15.14,12.49,47.59359,-54.27349
2020-01-11 02:14:01+00:00,237.0,12.98,238.0,14.34,12.49,47.59359,-54.27349
2020-01-11 02:24:01+00:00,238.0,13.12,233.0,15.45,12.49,47.59359,-54.27349
2020-01-11 02:34:01+00:00,227.0,11.53,222.0,13.61,12.49,47.59359,-54.27349
2020-01-11 02:44:01+00:00,229.0,14.2,231.0,17.27,12.49,47.59359,-54.27349
2020-01-11 02:54:01+00:00,228.0,14.67,230.0,16.97,12.49,47.59359,-54.27349
2020-01-11 03:04:01+00:00,227.0,14.4,226.0,17.12,12.49,47.59359,-54.27349
2020-01-11 03:14:01+00:00,228.0,14.42,228.0,17.12,12.49,47.59359,-54.27349
2020-01-11 03:24:01+00:00,229.0,14.21,229.0,16.15,12.49,47.59359,-54.27349
2020-01-11 03:34:01+00:00,225.0,16.34,225.0,18.5,12.49,47.59359,-54.27349
2020-01-11 03:44:01+00:00,224.0,15.54,222.0,18.27,12.49,47.59359,-54.27349
2020-01-11 03:54:01+00:00,230.0,15.16,222.0,17.46,12.49,47.59359,-54.27349
2020-01-11 04:04:01+00:00,227.0,17.83,223.0,20.08,12.49,47.59359,-54.27349
2020-01-11 04:14:01+00:00,227.0,16.03,225.0,18.77,12.41,47.59359,-54.27349
2020-01-11 04:24:01+00:00,229.0,15.07,231.0,17.31,12.41,47.59359,-54.27349
2020-01-11 04:34:01+00:00,229.0,15.03,230.0,16.77,12.41,47.59359,-54.27349
2020-01-11 04:44:01+00:00,226.0,15.25,225.0,17.3,12.41,47.59359,-54.27349
2020-01-11 04:54:01+00:00,226.0,16.0,224.0,18.37,12.41,47.59359,-54.27349
2020-01-11 05:04:01+00:00,228.0,15.29,227.0,17.58,12.41,47.59359,-54.27349
2020-01-11 05:14:01+00:00,225.0,13.61,227.0,15.31,12.41,47.59359,-54.27349
2020-01-11 05:24:01+00:00,228.0,12.87,225.0,15.03,12.41,47.59359,-54.27349
2020-01-11 05:34:01+00:00,226.0,13.32,229.0,15.52,12.41,47.59359,-54.27349
2020-01-11 05:44:01+00:00,226.0,12.24,227.0,14.29,12.41,47.59359,-54.27349
2020-01-11 05:54:01+00:00,230.0,12.47,231.0,14.2,12.41,47.59359,-54.27349
2020-01-11 06:04:01+00:00,229.0,11.58,231.0,14.39,12.41,47.59359,-54.27349
2020-01-11 06:14:01+00:00,229.0,11.66,226.0,13.1,12.41,47.59359,-54.27349
2020-01-11 06:24:01+00:00,238.0,9.67,238.0,11.69,12.41,47.59359,-54.27349
2020-01-11 06:34:01+00:00,247.0,10.07,251.0,12.08,12.41,47.59359,-54.27349
2020-01-11 06:44:01+00:00,245.0,11.78,237.0,13.89,12.41,47.59359,-54.27349
2020-01-11 06:54:01+00:00,245.0,10.25,245.0,12.55,12.41,47.59359,-54.27349
2020-01-11 07:04:01+00:00,253.0,10.55,258.0,12.28,12.41,47.59359,-54.27349
2020-01-11 07:14:01+00:00,258.0,10.56,266.0,12.51,12.41,47.59359,-54.27349
2020-01-11 07:24:01+00:00,258.0,9.57,260.0,11.17,12.41,47.59359,-54.27349
2020-01-11 07:34:01+00:00,259.0,9.44,259.0,10.68,12.41,47.59359,-54.27349
2020-01-11 07:44:01+00:00,251.0,10.59,245.0,12.1,12.41,47.59359,-54.27349
2020-01-11 07:54:01+00:00,258.0,10.19,256.0,12.14,12.41,47.59359,-54.27349
2020-01-11 08:04:01+00:00,257.0,10.34,257.0,11.56,12.41,47.59359,-54.27349
2020-01-11 08:14:01+00:00,261.0,9.48,259.0,10.8,12.41,47.59359,-54.27349
2020-01-11 08:24:01+00:00,264.0,10.92,262.0,13.0,12.41,47.59359,-54.27349
2020-01-11 08:34:01+00:00,271.0,10.22,274.0,11.85,12.41,47.59359,-54.27349
2020-01-11 08:44:01+00:00,267.0,8.59,273.0,9.62,12.41,47.59359,-54.27349
2020-01-11 08:54:01+00:00,272.0,10.32,277.0,11.77,12.41,47.59359,-54.27349
2020-01-11 09:04:01+00:00,270.0,8.47,269.0,9.53,12.41,47.59359,-54.27349
2020-01-11 09:14:01+00:00,272.0,8.95,282.0,10.33,12.41,47.59359,-54.27349
2020-01-11 09:24:01+00:00,281.0,8.38,280.0,9.59,12.41,47.59359,-54.27349
2020-01-11 09:34:01+00:00,279.0,10.11,280.0,10.97,12.41,47.59359,-54.27349
2020-01-11 09:44:01+00:00,281.0,9.27,284.0,10.49,12.41,47.59359,-54.27349
2020-01-11 09:54:01+00:00,269.0,8.07,274.0,8.66,12.41,47.59359,-54.27349
2020-01-11 10:04:01+00:00,272.0,8.8,268.0,9.82,12.41,47.59359,-54.27349
2020-01-11 10:14:01+00:00,275.0,7.71,275.0,8.7,12.33,47.59359,-54.27349
2020-01-11 10:24:01+00:00,279.0,8.64,281.0,9.62,12.33,47.59359,-54.27349
2020-01-11 10:34:01+00:00,276.0,6.06,273.0,6.89,12.33,47.59359,-54.27349
2020-01-11 10:44:01+00:00,281.0,6.2,283.0,7.38,12.33,47.59359,-54.27349
2020-01-11 10:54:01+00:00,269.0,5.72,271.0,6.55,12.33,47.59359,-54.27349
2020-01-11 11:04:01+00:00,273.0,5.78,278.0,6.61,12.33,47.59359,-54.27349
2020-01-11 11:14:01+00:00,283.0,5.67,294.0,6.96,12.33,47.59359,-54.27349
2020-01-11 11:24:01+00:00,281.0,5.77,284.0,6.16,12.33,47.59359,-54.27349
2020-01-11 11:34:01+00:00,287.0,4.98,287.0,5.64,12.33,47.59359,-54.27349
2020-01-11 11:44:01+00:00,287.0,3.78,285.0,4.5,12.33,47.59359,-54.27349
2020-01-11 11:54:01+00:00,270.0,5.97,270.0,6.58,12.33,47.59359,-54.27349
2020-01-11 12:04:01+00:00,261.0,5.71,258.0,6.45,12.33,47.59359,-54.27349
2020-01-11 12:14:01+00:00,272.0,6.12,272.0,6.71,12.81,47.59359,-54.27349
2020-01-11 12:24:01+00:00,273.0,6.4,273.0,7.37,12.81,47.59359,-54.27349
2020-01-11 12:34:01+00:00,269.0,7.46,265.0,8.04,12.81,47.59359,-54.27349
2020-01-11 12:44:01+00:00,258.0,6.41,261.0,8.86,12.81,47.59359,-54.27349
2020-01-11 12:54:01+00:00,270.0,8.06,266.0,9.89,12.81,47.59359,-54.27349
2020-01-11 13:04:01+00:00,273.0,6.47,274.0,7.25,12.81,47.59359,-54.27349
2020-01-11 13:14:01+00:00,276.0,5.74,271.0,7.69,13.44,47.59359,-54.27349
2020-01-11 13:24:01+00:00,287.0,5.25,286.0,5.92,13.44,47.59359,-54.27349
2020-01-11 13:34:01+00:00,320.0,6.3,321.0,7.91,13.44,47.59359,-54.27349
2020-01-11 13:44:01+00:00,313.0,7.31,314.0,9.2,13.44,47.59359,-54.27349
2020-01-11 13:54:01+00:00,293.0,4.66,295.0,5.7,13.44,47.59359,-54.27349
2020-01-11 14:04:01+00:00,285.0,6.05,287.0,8.22,13.44,47.59359,-54.27349
2020-01-11 14:14:01+00:00,305.0,5.62,307.0,6.25,13.44,47.59359,-54.27349
2020-01-11 14:24:01+00:00,276.0,4.77,278.0,5.16,13.44,47.59359,-54.27349
2020-01-11 14:34:01+00:00,260.0,5.49,262.0,6.01,13.44,47.59359,-54.27349
2020-01-11 14:44:01+00:00,256.0,5.63,261.0,6.28,13.44,47.59359,-54.27349
2020-01-11 14:54:01+00:00,248.0,6.05,250.0,6.49,13.44,47.59359,-54.27349
2020-01-11 15:04:01+00:00,245.0,4.63,242.0,5.08,13.44,47.59359,-54.27349
2020-01-11 15:14:01+00:00,249.0,7.11,253.0,8.27,13.44,47.59359,-54.27349
2020-01-11 15:24:01+00:00,257.0,6.48,259.0,7.49,13.44,47.59359,-54.27349
2020-01-11 15:34:01+00:00,247.0,5.64,249.0,6.75,13.44,47.59359,-54.27349
2020-01-11 15:44:01+00:00,240.0,5.83,239.0,6.35,13.44,47.59359,-54.27349
2020-01-11 15:54:01+00:00,263.0,8.29,265.0,9.53,13.44,47.59359,-54.27349
2020-01-11 16:04:01+00:00,258.0,7.89,259.0,8.65,13.44,47.59359,-54.27349
2020-01-11 16:14:01+00:00,255.0,7.79,259.0,8.82,13.6,47.59359,-54.27349
2020-01-11 16:24:01+00:00,261.0,7.93,266.0,9.03,13.6,47.59359,-54.27349
2020-01-11 16:34:01+00:00,261.0,9.32,262.0,10.24,13.6,47.59359,-54.27349
2020-01-11 16:44:01+00:00,254.0,7.71,248.0,8.58,13.6,47.59359,-54.27349
2020-01-11 16:54:01+00:00,249.0,8.67,247.0,9.74,13.6,47.59359,-54.27349
2020-01-11 17:04:01+00:00,257.0,6.97,259.0,8.16,13.6,47.59359,-54.27349
2020-01-11 17:14:01+00:00,258.0,6.51,255.0,8.35,13.6,47.59359,-54.27349
2020-01-11 17:24:01+00:00,247.0,8.14,240.0,9.57,13.6,47.59359,-54.27349
2020-01-11 17:34:01+00:00,260.0,7.54,259.0,8.24,13.6,47.59359,-54.27349
2020-01-11 17:44:01+00:00,253.0,8.31,250.0,9.35,13.6,47.59359,-54.27349
2020-01-11 17:54:01+00:00,247.0,8.2,241.0,9.15,13.6,47.59359,-54.27349
2020-01-11 18:04:01+00:00,247.0,9.02,249.0,10.7,13.6,47.59359,-54.27349
2020-01-11 18:14:01+00:00,247.0,8.26,248.0,9.45,13.44,47.59359,-54.27349
2020-01-11 18:24:01+00:00,247.0,7.34,247.0,8.76,13.44,47.59359,-54.27349
2020-01-11 18:34:01+00:00,254.0,9.82,252.0,11.0,13.44,47.59359,-54.27349
2020-01-11 18:44:01+00:00,247.0,8.5,244.0,9.33,13.44,47.59359,-54.27349
2020-01-11 18:54:01+00:00,255.0,8.45,258.0,9.95,13.44,47.59359,-54.27349
2020-01-11 19:04:01+00:00,244.0,7.96,245.0,9.09,13.44,47.59359,-54.27349
2020-01-11 19:14:01+00:00,249.0,8.45,250.0,9.75,12.81,47.59359,-54.27349
2020-01-11 19:24:01+00:00,247.0,9.6,246.0,11.01,12.81,47.59359,-54.27349
2020-01-11 19:34:01+00:00,242.0,7.4,246.0,8.72,12.81,47.59359,-54.27349
2020-01-11 19:44:01+00:00,245.0,9.41,250.0,10.78,12.81,47.59359,-54.27349
2020-01-11 19:54:01+00:00,247.0,9.94,241.0,11.91,12.81,47.59359,-54.27349
2020-01-11 20:04:01+00:00,239.0,8.28,245.0,9.39,12.81,47.59359,-54.27349
2020-01-11 21:14:01+00:00,239.0,7.76,235.0,9.34,12.65,47.59359,-54.27349
2020-01-11 21:24:01+00:00,235.0,8.36,233.0,10.01,12.65,47.59359,-54.27349
2020-01-11 21:34:01+00:00,232.0,7.17,230.0,8.26,12.65,47.59359,-54.27349
2020-01-11 21:44:01+00:00,232.0,7.01,226.0,8.57,12.65,47.59359,-54.27349
2020-01-11 21:54:01+00:00,227.0,7.95,229.0,9.47,12.65,47.59359,-54.27349
2020-01-11 22:04:01+00:00,230.0,9.43,238.0,11.34,12.65,47.59359,-54.27349
2020-01-11 22:14:01+00:00,226.0,8.55,229.0,9.97,12.65,47.59359,-54.27349
2020-01-11 22:24:01+00:00,218.0,9.7,217.0,11.09,12.65,47.59359,-54.27349
2020-01-11 22:34:01+00:00,217.0,9.61,218.0,10.73,12.65,47.59359,-54.27349
2020-01-11 22:44:01+00:00,216.0,10.21,216.0,11.34,12.65,47.59359,-54.27349
2020-01-11 22:54:01+00:00,217.0,9.88,219.0,10.89,12.65,47.59359,-54.27349
2020-01-11 23:04:01+00:00,219.0,8.83,225.0,10.23,12.65,47.59359,-54.27349
2020-01-11 23:14:01+00:00,216.0,10.71,211.0,12.77,12.65,47.59359,-54.27349
2020-01-11 23:24:01+00:00,216.0,9.21,221.0,10.87,12.65,47.59359,-54.27349
2020-01-11 23:34:01+00:00,212.0,9.13,216.0,10.7,12.65,47.59359,-54.27349
2020-01-11 23:44:01+00:00,213.0,11.47,214.0,12.81,12.65,47.59359,-54.27349
2020-01-11 23:54:01+00:00,212.0,11.1,216.0,12.69,12.65,47.59359,-54.27349
